EW1669 Weather Reports


Display with metric or nautical units.
time (UTC)temp
F
wind
direction
speed
MPH
gust
MPH
rain 1hr
in
rain 24hr
in
rain mn
in
humidity
%
barometer
mb
20260901110552 70 110 0.0 1.0 0.00 0.00 0.00 56 1020.7
20260901110257 70 106 0.0 0.0 0.00 0.00 0.00 56 1020.7
20260901105527 70 110 0.0 0.0 0.00 0.00 0.00 56 1020.7
20260901105017 70 114 0.0 0.0 0.00 0.00 0.00 56 1020.4
20260901104515 70 106 0.0 0.0 0.00 0.00 0.00 56 1021.1
20260901103515 70 114 0.0 0.0 0.00 0.00 0.00 56 1020.7
20260901103004 70 107 0.0 0.0 0.00 0.00 0.00 56 1020.7
20260901102454 70 111 0.0 0.0 0.00 0.00 0.00 56 1020.4
20260901101952 70 110 0.0 0.0 0.00 0.00 0.00 56 1020.7
20260901101443 70 104 0.0 0.0 0.00 0.00 0.00 56 1020.4
20260901100935 70 106 0.0 0.0 0.00 0.00 0.00 56 1020.7
20260901100425 70 106 0.0 0.0 0.00 0.00 0.00 56 1020.7
20260901095926 70 107 0.0 0.0 0.00 0.00 0.00 56 1020.4
20260901095415 70 107 0.0 1.0 0.00 0.00 0.00 55 1020.7
20260901094914 71 107 0.0 1.0 0.00 0.00 0.00 55 1020.7
20260901094412 71 108 0.0 0.0 0.00 0.00 0.00 54 1020.7
20260901093910 71 114 0.0 0.0 0.00 0.00 0.00 54 1020.7
20260901093412 71 120 0.0 0.0 0.00 0.00 0.00 54 1020.7
20260901093130 71 121 0.0 0.0 0.00 0.00 0.00 54 1021.1
20260901092634 71 117 0.0 0.0 0.00 0.00 0.00 53 1020.4
20260901091856 71 120 0.0 0.0 0.00 0.00 0.00 53 1020.7
20260901091355 71 123 0.0 0.0 0.00 0.00 0.00 52 1020.4
20260901090835 72 117 0.0 0.0 0.00 0.00 0.00 52 1020.7
20260901090531 72 115 0.0 0.0 0.00 0.00 0.00 52 1020.7
20260901085811 72 117 0.0 0.0 0.00 0.00 0.00 52 1020.7
20260901085305 72 108 0.0 3.0 0.00 0.00 0.00 51 1020.7
20260901084800 72 116 0.0 3.0 0.00 0.00 0.00 51 1020.7
20260901084249 72 128 0.0 1.0 0.00 0.00 0.00 51 1020.4
20260901083736 73 133 0.0 1.0 0.00 0.00 0.00 50 1020.7
20260901083234 73 123 0.0 1.0 0.00 0.00 0.00 50 1020.4
20260901082735 72 120 0.0 2.0 0.00 0.00 0.00 50 1020.4
20260901082501 73 117 0.0 2.0 0.00 0.00 0.00 50 1020.0
20260901081715 73 115 0.0 3.0 0.00 0.00 0.00 50 1020.4
20260901081215 73 119 0.0 4.0 0.00 0.00 0.00 50 1020.7
20260901080715 73 108 0.0 4.0 0.00 0.00 0.00 50 1020.4
20260901080203 73 118 0.0 4.0 0.00 0.00 0.00 50 1020.4
20260901075656 73 125 0.0 3.0 0.00 0.00 0.00 49 1020.0
20260901075417 73 136 0.0 3.0 0.00 0.00 0.00 49 1020.0
20260901074647 74 128 0.0 2.0 0.00 0.00 0.00 49 1020.0
20260901074143 74 109 0.0 6.0 0.00 0.00 0.00 48 1020.4
20260901073619 74 115 1.0 7.0 0.00 0.00 0.00 48 1020.4
20260901073114 74 134 0.0 9.0 0.00 0.00 0.00 47 1020.4
20260901072613 74 92 2.0 9.0 0.00 0.00 0.00 47 1020.0
20260901072114 74 122 1.0 8.0 0.00 0.00 0.00 47 1020.4
20260901071614 74 115 1.0 4.0 0.00 0.00 0.00 47 1020.4
20260901071110 74 126 1.0 4.0 0.00 0.00 0.00 46 1020.4
20260901070834 74 106 0.0 3.0 0.00 0.00 0.00 46 1020.4
20260901070324 74 132 0.0 3.0 0.00 0.00 0.00 45 1020.7
20260901065601 75 108 0.0 3.0 0.00 0.00 0.00 45 1020.0
20260901065100 75 125 0.0 3.0 0.00 0.00 0.00 45 1020.4
20260901064811 75 112 0.0 3.0 0.00 0.00 0.00 45 1020.4
20260901064047 75 111 0.0 6.0 0.00 0.00 0.00 45 1020.4
20260901063753 75 114 1.0 6.0 0.00 0.00 0.00 44 1020.4
20260901063009 75 136 1.0 6.0 0.00 0.00 0.00 44 1020.0
20260901062504 75 131 0.0 7.0 0.00 0.00 0.00 44 1020.0
20260901062228 76 113 0.0 7.0 0.00 0.00 0.00 44 1020.4
20260901061459 76 120 0.0 6.0 0.00 0.00 0.00 44 1020.4
20260901061224 76 120 0.0 6.0 0.00 0.00 0.00 43 1020.4
20260901060436 76 119 0.0 3.0 0.00 0.00 0.00 43 1020.4
20260901055931 76 121 1.0 2.0 0.00 0.00 0.00 43 1020.4
20260901055430 76 112 0.0 6.0 0.00 0.00 0.00 42 1020.7
20260901054921 76 100 1.0 4.0 0.00 0.00 0.00 42 1020.4
20260901054421 77 122 0.0 4.0 0.00 0.00 0.00 42 1020.4
20260901053901 77 120 0.0 8.0 0.00 0.00 0.00 42 1020.4
20260901053359 77 119 0.0 8.0 0.00 0.00 0.00 42 1020.0
20260901052847 77 112 0.0 8.0 0.00 0.00 0.00 41 1020.7
20260901052340 77 135 0.0 8.0 0.00 0.00 0.00 41 1020.4
20260901052054 77 115 0.0 4.0 0.00 0.00 0.00 41 1020.4
20260901051327 77 100 1.0 4.0 0.00 0.00 0.00 41 1021.1
20260901050819 77 122 0.0 9.0 0.00 0.00 0.00 41 1020.7
20260901050306 78 119 1.0 9.0 0.00 0.00 0.00 41 1020.4
20260901045756 78 128 0.0 10.0 0.00 0.00 0.00 40 1020.7
20260901045253 78 133 1.0 10.0 0.00 0.00 0.00 40 1020.7
20260901044753 78 122 1.0 8.0 0.00 0.00 0.00 39 1020.7
20260901044249 78 142 0.0 9.0 0.00 0.00 0.00 39 1020.4
20260901043745 79 111 0.0 9.0 0.00 0.00 0.00 39 1020.4
20260901043240 79 100 2.0 7.0 0.00 0.00 0.00 38 1020.7
20260901042735 79 108 0.0 6.0 0.00 0.00 0.00 38 1020.7
20260901042228 79 131 0.0 6.0 0.00 0.00 0.00 37 1020.4
20260901041726 79 134 1.0 6.0 0.00 0.00 0.00 37 1020.7
20260901041213 80 119 0.0 9.0 0.00 0.00 0.00 37 1020.7
20260901040939 80 140 0.0 9.0 0.00 0.00 0.00 37 1020.4
20260901040204 80 143 3.0 7.0 0.00 0.00 0.00 37 1020.4
20260901035644 80 110 0.0 4.0 0.00 0.00 0.00 37 1020.4
20260901035354 81 126 0.0 4.0 0.00 0.00 0.00 36 1020.4
20260901034629 81 132 0.0 6.0 0.00 0.00 0.00 36 1020.4
20260901034110 81 114 0.0 6.0 0.00 0.00 0.00 36 1020.4
20260901033603 81 100 0.0 7.0 0.00 0.00 0.00 36 1020.0
20260901033055 80 124 1.0 7.0 0.00 0.00 0.00 37 1020.0
20260901032544 81 119 3.0 11.0 0.00 0.00 0.00 36 1020.0
20260901032042 81 127 8.0 11.0 0.00 0.00 0.00 36 1020.0
20260901031534 81 136 0.0 6.0 0.00 0.00 0.00 36 1020.0
20260901031015 81 126 0.0 3.0 0.00 0.00 0.00 36 1019.7
20260901030511 81 106 0.0 1.0 0.00 0.00 0.00 36 1019.7
20260901030451 82 112 0.0 4.0 0.00 0.00 0.00 36 1019.7
20260901025506 82 127 0.0 6.0 0.00 0.00 0.00 35 1019.4
20260901025002 82 120 0.0 6.0 0.00 0.00 0.00 35 1019.7
20260901024707 82 128 1.0 6.0 0.00 0.00 0.00 34 1019.4
20260901023933 82 116 0.0 8.0 0.00 0.00 0.00 34 1019.4
20260901023423 83 144 0.0 8.0 0.00 0.00 0.00 33 1019.0
20260901022913 83 128 0.0 4.0 0.00 0.00 0.00 33 1018.7
20260901022406 83 108 2.0 4.0 0.00 0.00 0.00 33 1019.0
20260901021907 83 134 0.0 8.0 0.00 0.00 0.00 33 1018.7
20260901021406 83 123 0.0 8.0 0.00 0.00 0.00 32 1018.7
20260901020906 83 143 0.0 8.0 0.00 0.00 0.00 32 1018.7
20260901020404 84 129 4.0 11.0 0.00 0.00 0.00 31 1018.7
20260901015904 84 122 2.0 11.0 0.00 0.00 0.00 31 1018.7
20260901015358 84 124 2.0 7.0 0.00 0.00 0.00 31 1018.3
20260901014848 84 121 0.0 8.0 0.00 0.00 0.00 30 1018.3
20260901014328 85 120 1.0 8.0 0.00 0.00 0.00 30 1018.3
20260901013815 85 116 2.0 11.0 0.00 0.00 0.00 30 1018.3
20260901013315 85 125 1.0 11.0 0.00 0.00 0.00 30 1018.3
20260901012813 85 109 0.0 13.0 0.00 0.00 0.00 31 1018.3
20260901012259 85 137 0.0 13.0 0.00 0.00 0.00 31 1018.3
20260901011758 86 126 4.0 13.0 0.00 0.00 0.00 31 1018.3
20260901011248 86 108 0.0 13.0 0.00 0.00 0.00 31 1018.3
20260901010749 86 122 7.0 11.0 0.00 0.00 0.00 30 1018.3
20260901010245 86 125 0.0 9.0 0.00 0.00 0.00 29 1018.0
20260901005733 87 128 2.0 13.0 0.00 0.00 0.00 30 1018.3
20260901005439 87 136 0.0 14.0 0.00 0.00 0.00 30 1018.0
20260901004706 87 81 8.0 14.0 0.00 0.00 0.00 29 1018.3
20260901004206 87 125 6.0 14.0 0.00 0.00 0.00 29 1018.3
20260901003648 87 122 1.0 14.0 0.00 0.00 0.00 29 1018.0
20260901003135 88 125 0.0 15.0 0.00 0.00 0.00 30 1018.3
20260901002630 88 131 7.0 16.0 0.00 0.00 0.00 29 1018.3
20260901002126 88 101 8.0 16.0 0.00 0.00 0.00 29 1018.0
20260901001622 88 113 2.0 15.0 0.00 0.00 0.00 29 1018.3
20260901001339 88 146 5.0 14.0 0.00 0.00 0.00 29 1018.3
20260901000615 88 145 3.0 15.0 0.00 0.00 0.00 29 1018.3
20260901000058 89 116 12.0 15.0 0.00 0.00 0.00 29 1018.3
20260831235543 89 113 2.0 15.0 0.00 0.00 0.00 29 1018.3
20260831235034 89 79 8.0 15.0 0.00 0.00 0.00 28 1018.3
20260831234514 89 145 7.0 15.0 0.00 0.00 0.00 27 1018.3
20260831234012 89 138 3.0 16.0 0.00 0.00 0.00 28 1018.3
20260831233510 89 124 9.0 16.0 0.00 0.00 0.00 27 1018.3
20260831233223 89 135 8.0 16.0 0.00 0.00 0.00 27 1018.3
20260831232457 90 150 7.0 16.0 0.00 0.00 0.00 27 1018.7
20260831231947 90 148 4.0 15.0 0.00 0.00 0.00 27 1018.3
20260831231438 91 114 9.0 15.0 0.00 0.00 0.00 26 1018.3
20260831231417 91 111 4.0 14.0 0.00 0.00 0.00 26 1018.3
20260831230427 90 115 7.0 14.0 0.00 0.00 0.00 26 1018.3
20260831225918 91 170 8.0 15.0 0.00 0.00 0.00 26 1018.3
20260831225410 91 102 9.0 18.0 0.00 0.00 0.00 26 1018.3
20260831225132 91 132 10.0 18.0 0.00 0.00 0.00 26 1018.3
20260831224405 91 137 10.0 16.0 0.00 0.00 0.00 25 1018.0
20260831223904 91 146 3.0 16.0 0.00 0.00 0.00 25 1018.3
20260831223401 91 121 6.0 15.0 0.00 0.00 0.00 25 1018.3
20260831223104 91 125 3.0 15.0 0.00 0.00 0.00 25 1018.3
20260831222340 92 121 2.0 16.0 0.00 0.00 0.00 24 1018.3
20260831221818 92 100 10.0 15.0 0.00 0.00 0.00 24 1018.3
20260831221317 92 118 1.0 15.0 0.00 0.00 0.00 25 1018.3
20260831220815 92 71 6.0 13.0 0.00 0.00 0.00 25 1018.3
20260831220251 92 123 6.0 14.0 0.00 0.00 0.00 25 1018.3
20260831215744 93 111 9.0 14.0 0.00 0.00 0.00 24 1018.3
20260831215244 93 121 0.0 16.0 0.00 0.00 0.00 25 1018.7
20260831214739 92 147 2.0 16.0 0.00 0.00 0.00 25 1018.3
20260831214232 92 129 9.0 15.0 0.00 0.00 0.00 24 1018.7
20260831213732 93 92 0.0 15.0 0.00 0.00 0.00 25 1018.7
20260831213211 93 110 0.0 14.0 0.00 0.00 0.00 24 1018.7
20260831212701 92 81 5.0 14.0 0.00 0.00 0.00 23 1018.7
20260831212158 92 106 4.0 15.0 0.00 0.00 0.00 24 1019.0
20260831211912 93 110 6.0 15.0 0.00 0.00 0.00 24 1019.0
20260831211147 93 112 0.0 16.0 0.00 0.00 0.00 26 1019.0
20260831210645 94 114 2.0 16.0 0.00 0.00 0.00 24 1019.0
20260831210402 93 115 0.0 15.0 0.00 0.00 0.00 24 1019.0
20260831205634 93 148 5.0 13.0 0.00 0.00 0.00 24 1019.0
20260831205131 92 153 4.0 13.0 0.00 0.00 0.00 25 1019.4
20260831204615 92 117 4.0 13.0 0.00 0.00 0.00 25 1019.0
20260831204113 92 110 0.0 13.0 0.00 0.00 0.00 24 1019.4
20260831203840 92 100 1.0 9.0 0.00 0.00 0.00 26 1019.4
20260831203112 92 129 0.0 13.0 0.00 0.00 0.00 27 1019.4
20260831202608 92 95 1.0 13.0 0.00 0.00 0.00 27 1019.4
20260831202103 92 104 2.0 13.0 0.00 0.00 0.00 26 1019.7
20260831201815 93 159 7.0 10.0 0.00 0.00 0.00 25 1020.0
20260831201054 93 101 0.0 15.0 0.00 0.00 0.00 26 1019.7
20260831200538 91 147 0.0 15.0 0.00 0.00 0.00 27 1020.0
20260831200034 92 124 5.0 15.0 0.00 0.00 0.00 26 1020.0
20260831195518 92 115 0.0 7.0 0.00 0.00 0.00 28 1020.0
20260831195016 92 153 0.0 10.0 0.00 0.00 0.00 27 1020.4
20260831194514 92 155 3.0 14.0 0.00 0.00 0.00 27 1020.0
20260831194015 92 111 6.0 14.0 0.00 0.00 0.00 27 1020.0
20260831193513 92 107 4.0 8.0 0.00 0.00 0.00 28 1020.0
20260831193014 91 103 0.0 14.0 0.00 0.00 0.00 28 1020.4
20260831192456 92 91 0.0 14.0 0.00 0.00 0.00 28 1020.0
20260831191935 91 128 1.0 14.0 0.00 0.00 0.00 29 1020.0
20260831191417 92 162 7.0 14.0 0.00 0.00 0.00 29 1020.4
20260831190905 92 92 0.0 10.0 0.00 0.00 0.00 28 1020.4
20260831190359 91 122 1.0 10.0 0.00 0.00 0.00 30 1020.4
20260831185844 91 121 4.0 9.0 0.00 0.00 0.00 30 1020.4
20260831185334 91 102 3.0 8.0 0.00 0.00 0.00 30 1020.7
20260831184833 91 70 0.0 13.0 0.00 0.00 0.00 32 1020.7
20260831184813 91 113 9.0 14.0 0.00 0.00 0.00 32 1020.4
20260831183816 90 150 6.0 14.0 0.00 0.00 0.00 31 1020.7
20260831183307 91 141 0.0 13.0 0.00 0.00 0.00 32 1020.4
20260831182802 90 134 0.0 13.0 0.00 0.00 0.00 32 1020.7
20260831182305 90 131 1.0 13.0 0.00 0.00 0.00 33 1021.1
20260831181753 90 118 0.0 14.0 0.00 0.00 0.00 33 1020.7
20260831181250 90 118 5.0 14.0 0.00 0.00 0.00 33 1021.4
20260831180750 90 139 0.0 17.0 0.00 0.00 0.00 34 1021.1
20260831180242 90 140 3.0 9.0 0.00 0.00 0.00 33 1021.1
20260831175735 89 129 0.0 11.0 0.00 0.00 0.00 34 1021.1
20260831175219 89 147 0.0 11.0 0.00 0.00 0.00 35 1021.1
20260831174710 90 131 0.0 10.0 0.00 0.00 0.00 35 1021.1
20260831174206 89 144 4.0 10.0 0.00 0.00 0.00 35 1021.1
20260831173704 89 163 1.0 9.0 0.00 0.00 0.00 35 1021.4
20260831173146 89 112 3.0 11.0 0.00 0.00 0.00 35 1021.4
20260831172640 89 110 0.0 11.0 0.00 0.00 0.00 34 1021.4
20260831172130 89 143 0.0 11.0 0.00 0.00 0.00 36 1021.7
20260831171837 88 181 0.0 13.0 0.00 0.00 0.00 36 1021.7
20260831171113 87 136 1.0 13.0 0.00 0.00 0.00 36 1021.7
20260831170605 87 150 2.0 11.0 0.00 0.00 0.00 36 1021.7
20260831170537 87 151 3.0 10.0 0.00 0.00 0.00 37 1021.7
20260831165552 86 126 5.0 10.0 0.00 0.00 0.00 37 1021.4
20260831165040 86 120 2.0 10.0 0.00 0.00 0.00 39 1021.7
20260831164534 87 142 0.0 10.0 0.00 0.00 0.00 38 1021.7
20260831164247 85 116 0.0 8.0 0.00 0.00 0.00 41 1021.7
20260831163529 87 146 0.0 7.0 0.00 0.00 0.00 40 1021.4
20260831163030 85 105 1.0 7.0 0.00 0.00 0.00 41 1021.7
20260831162754 85 170 1.0 9.0 0.00 0.00 0.00 41 1021.7
20260831162027 85 172 0.0 9.0 0.00 0.00 0.00 42 1021.7
20260831161522 85 199 0.0 8.0 0.00 0.00 0.00 43 1021.7
20260831161013 84 144 0.0 8.0 0.00 0.00 0.00 42 1021.4
20260831160507 83 204 0.0 9.0 0.00 0.00 0.00 44 1021.4
20260831160000 83 125 1.0 9.0 0.00 0.00 0.00 45 1021.1
20260831155457 82 147 1.0 9.0 0.00 0.00 0.00 45 1021.1
20260831154950 82 140 2.0 9.0 0.00 0.00 0.00 46 1021.4
20260831154447 82 142 0.0 7.0 0.00 0.00 0.00 46 1021.4
20260831153946 82 199 0.0 7.0 0.00 0.00 0.00 47 1021.1
20260831153653 82 150 0.0 7.0 0.00 0.00 0.00 47 1021.1
20260831152915 81 203 0.0 6.0 0.00 0.00 0.00 48 1021.4
20260831152415 81 123 2.0 8.0 0.00 0.00 0.00 48 1021.4
20260831152115 81 198 1.0 8.0 0.00 0.00 0.00 48 1021.4
20260831151347 81 207 0.0 7.0 0.00 0.00 0.00 49 1021.4
20260831150837 80 196 0.0 3.0 0.00 0.00 0.00 49 1021.4
20260831150328 79 166 0.0 4.0 0.00 0.00 0.00 51 1021.7
20260831145826 79 138 0.0 10.0 0.00 0.00 0.00 51 1021.4
20260831145326 78 197 0.0 11.0 0.00 0.00 0.00 51 1021.1
20260831144814 78 130 0.0 11.0 0.00 0.00 0.00 52 1021.1
20260831144306 78 107 0.0 9.0 0.00 0.00 0.00 53 1020.7
20260831143757 78 135 0.0 4.0 0.00 0.00 0.00 53 1020.7
20260831143254 77 150 0.0 13.0 0.00 0.00 0.00 53 1020.7
20260831142753 76 191 9.0 13.0 0.00 0.00 0.00 54 1020.7
20260831142250 76 139 8.0 10.0 0.00 0.00 0.00 55 1020.7
20260831142227 76 144 0.0 9.0 0.00 0.00 0.00 55 1020.7
20260831141453 75 133 1.0 11.0 0.00 0.00 0.00 56 1021.1
20260831140720 75 153 4.0 11.0 0.00 0.00 0.00 57 1021.1
20260831140428 75 109 0.0 8.0 0.00 0.00 0.00 56 1020.7
20260831135651 74 185 0.0 6.0 0.00 0.00 0.00 56 1020.4
20260831135147 74 194 1.0 3.0 0.00 0.00 0.00 57 1020.4
20260831134638 74 131 1.0 2.0 0.00 0.00 0.00 56 1020.4
20260831134129 74 181 0.0 1.0 0.00 0.00 0.00 57 1020.7
20260831133608 74 172 0.0 1.0 0.00 0.00 0.00 57 1020.4
20260831133102 73 178 0.0 1.0 0.00 0.00 0.00 57 1020.7
20260831132601 73 197 0.0 2.0 0.00 0.00 0.00 58 1020.4
20260831132053 73 189 0.0 2.0 0.00 0.00 0.00 58 1020.4
20260831131551 73 170 0.0 0.0 0.00 0.00 0.00 58 1020.0
20260831131044 72 128 0.0 0.0 0.00 0.00 0.00 58 1019.7
20260831130540 71 186 0.0 0.0 0.00 0.00 0.00 59 1020.0
20260831130040 71 192 0.0 0.0 0.00 0.00 0.00 59 1020.0
20260831125535 71 201 0.0 0.0 0.00 0.00 0.00 59 1020.0
20260831125234 71 189 0.0 0.0 0.00 0.00 0.00 60 1019.7
20260831124738 71 188 0.0 1.0 0.00 0.00 0.00 60 1019.7
20260831124004 71 197 0.0 1.0 0.00 0.00 0.00 60 1019.7
20260831123455 71 172 0.0 1.0 0.00 0.00 0.00 60 1019.7
20260831122946 71 191 0.0 1.0 0.00 0.00 0.00 59 1019.4
20260831122434 71 187 0.0 1.0 0.00 0.00 0.00 58 1019.4
20260831121927 71 199 0.0 1.0 0.00 0.00 0.00 58 1019.4
20260831121424 71 198 0.0 1.0 0.00 0.00 0.00 58 1019.4
20260831120923 71 163 0.0 1.0 0.00 0.00 0.00 58 1019.4
20260831120414 71 125 0.0 1.0 0.00 0.00 0.00 57 1019.4
20260831115905 71 151 0.0 0.0 0.00 0.00 0.00 57 1019.7
20260831115403 71 196 0.0 1.0 0.00 0.00 0.00 56 1019.7
20260831114855 71 199 0.0 1.0 0.00 0.00 0.00 56 1019.7
20260831114347 71 167 0.0 0.0 0.00 0.00 0.00 57 1019.4
20260831113841 71 164 0.0 0.0 0.00 0.00 0.00 56 1019.4
20260831113326 70 164 0.0 0.0 0.00 0.00 0.00 57 1020.0
20260831112814 70 164 0.0 0.0 0.00 0.00 0.00 57 1019.4
20260831112313 70 164 0.0 0.0 0.00 0.00 0.00 57 1019.4
20260831112038 70 164 0.0 0.0 0.00 0.00 0.00 57 1019.7
20260831111311 70 164 0.0 0.0 0.00 0.00 0.00 56 1019.4